Location: Burla
(50.9568°N, 10.4983°E)
Time: 08:44:35
(UTC+00:00)

ATLAS 2AS CENTAUR R/B - Pass Details

Date: 18 January 2026
Orbit: 1050 x 1161 km, 63.7° (Epoch: 19 February)

Event Time Altitude Azimuth Distance (km) Brightness Sun altitude
Exits shadow 03:16:42 46° 35° (NE) 1,388 3.4 -36.4°
Drops below altitude 10° 03:23:00 10° 104° (ESE) 2,866 5.6 -35.4°
Sets 03:25:46 0° 110° (ESE) 3,822 6.4 -35.0°
